Location: McFarlands Corners
(41.4117°N, 81.3382°W)
Time: 10:52:01
(UTC+00:00)

Transit 4A - Visible Passes

Search period start: 16 February 2026 00:00
Search period end: 26 February 2026 00:00
Orbit: 865 x 976 km, 66.8° (Epoch: 16 February)

Date Brightness Start Highest point End Pass type
(mag) Time Alt. Az. Time Alt. Az. Time Alt. Az.
16 Feb 9.3 08:55:49 32° ENE 08:55:49 32° ENE 08:59:21 10° NE visible
16 Feb 8.5 10:39:19 31° WNW 10:40:10 32° NW 10:45:31 10° NNE visible
17 Feb 9.1 09:04:45 36° NE 09:04:45 36° NE 09:08:18 10° NE visible
17 Feb 8.9 10:48:15 23° WNW 10:49:12 24° NW 10:53:59 10° N visible
18 Feb 9.0 09:13:37 37° NNE 09:13:37 37° NNE 09:17:06 10° NNE visible
18 Feb 9.3 10:57:06 17° NW 10:58:20 18° NW 11:02:19 10° N visible
19 Feb 9.0 09:22:24 33° N 09:22:24 33° N 09:25:49 10° NNE visible
19 Feb 9.6 11:05:52 12° NW 11:07:34 13° NNW 11:10:27 10° N visible
20 Feb 10.7 07:47:38 11° NE 07:47:38 11° NE 07:47:51 10° NE visible
20 Feb 9.1 09:31:07 29° N 09:31:07 29° N 09:34:26 10° NNE visible
20 Feb 9.9 11:16:08 10° NW 11:16:53 10° NNW 11:17:37 10° NNW visible
21 Feb 10.5 07:56:19 13° NE 07:56:19 13° NE 07:56:55 10° NE visible
21 Feb 9.3 09:39:46 24° NNW 09:39:46 24° NNW 09:42:58 10° NNE visible
22 Feb 10.4 08:04:55 15° NE 08:04:55 15° NE 08:05:49 10° NNE visible
22 Feb 9.5 09:48:24 20° NNW 09:48:24 20° NNW 09:51:25 10° N visible
23 Feb 10.2 08:13:30 16° NNE 08:13:30 16° NNE 08:14:36 10° NNE visible
23 Feb 9.7 09:56:58 16° NNW 09:56:58 16° NNW 09:59:43 10° N visible
24 Feb 10.2 08:22:03 16° NNE 08:22:03 16° NNE 08:23:17 10° NNE visible
24 Feb 9.9 10:05:31 13° NNW 10:05:31 13° NNW 10:07:44 10° N visible
25 Feb 10.1 08:30:34 16° N 08:30:34 16° N 08:31:53 10° NNE visible
